{"data":{"norad_id":62020,"intl_designator":"2024-213N","name":"STARLINK-11378 [DTC]","alt_names":[],"object_type":"PAYLOAD","status":"ACTIVE","operator":null,"country":"US","launch_date":"2024-11-18","launch_site_code":"AFWTR","launch_vehicle":null,"mission":null,"orbit_class":"UNKNOWN","rcs_meters":null,"size_class":null,"mass_kg":null,"dimensions":null,"purposes":["comms"],"wikipedia_slug":null,"has_3d_model":false,"image_url":null,"decayed_at":null,"tle_current":{"epoch":"2026-05-25T01:17:11.179104Z","epoch_age_seconds":66921,"freshness":"FRESH","line1":"1 62020U 24213N   26145.05360161  .00113187  00000+0  92499-3 0  9998","line2":"2 62020  53.1578  24.4729 0001031  79.7234 280.3900 15.69747167 86915","mean_motion":15.69747167,"eccentricity":0.0001031,"inclination_deg":53.1578,"raan_deg":24.4729,"arg_perigee_deg":79.7234,"mean_anomaly_deg":280.39,"bstar":0.00092499,"rev_number":8691,"period_min":91.734518161421,"perigee_km":358.92573200369,"apogee_km":360.31505757849,"semimajor_km":6737.7573947911,"source":"CELESTRAK","updated_at":"2026-05-25T13:38:19.521268Z"}}}